N45VT KGCN-KSAN

Flight info

Callsign N45VT
Flight time 1h 55m
Altitude 16000
Route PARKS4 PGS
Aircraft AEST/L-SDFGRY/S

Departure

Time 2026-05-09 04:54
Airport Grand Canyon National Park Airport (KGCN)

Arrival

Time 2026-05-09 06:49
Airport San Diego International Airport (KSAN)
Time Latitude Longitude Altitude Speed Heading
2026-05-09 04:41 35.95931 -112.13747 6607 ft 0 kts 308°
2026-05-09 04:44 35.95953 -112.13767 6607 ft 9 kts
2026-05-09 04:45 35.96023 -112.13689 6610 ft 18 kts 40°
2026-05-09 04:45 35.96114 -112.13594 6613 ft 18 kts 40°
2026-05-09 04:45 35.96134 -112.13560 6613 ft 8 kts 258°
2026-05-09 04:45 35.96135 -112.13592 6613 ft 0 kts 313°
2026-05-09 04:48 35.96134 -112.13592 6613 ft 0 kts 313°
2026-05-09 04:52 35.96146 -112.13611 6613 ft 7 kts 291°
2026-05-09 04:52 35.96144 -112.13694 6612 ft 11 kts 288°
2026-05-09 04:52 35.96152 -112.13723 6612 ft 7 kts 285°
2026-05-09 04:52 35.96060 -112.13833 6607 ft 50 kts 220°
2026-05-09 04:53 35.95643 -112.14272 6595 ft 101 kts 221°
2026-05-09 04:53 35.95058 -112.14882 6619 ft 113 kts 219°
2026-05-09 04:53 35.94410 -112.15500 6784 ft 121 kts 211°
2026-05-09 04:53 35.93701 -112.16070 7177 ft 114 kts 212°
2026-05-09 04:54 35.93264 -112.16397 7459 ft 109 kts 212°
2026-05-09 04:54 35.92560 -112.16932 7613 ft 123 kts 213°
2026-05-09 04:54 35.91787 -112.17517 7776 ft 132 kts 215°
2026-05-09 04:54 35.91056 -112.18096 8202 ft 119 kts 214°
2026-05-09 04:55 35.90333 -112.18669 8367 ft 129 kts 218°
2026-05-09 04:55 35.89634 -112.19371 8610 ft 129 kts 226°
2026-05-09 04:55 35.88989 -112.20118 8849 ft 129 kts 226°
2026-05-09 04:55 35.88364 -112.20966 8886 ft 146 kts 238°
2026-05-09 04:56 35.87758 -112.22078 8808 ft 165 kts 239°
2026-05-09 04:56 35.87154 -112.23305 8926 ft 168 kts 242°
2026-05-09 04:56 35.86501 -112.24569 8857 ft 180 kts 239°
2026-05-09 04:56 35.85808 -112.25892 8849 ft 187 kts 243°
2026-05-09 04:57 35.85275 -112.27368 8873 ft 190 kts 257°
2026-05-09 04:57 35.85137 -112.28978 8912 ft 190 kts 276°
2026-05-09 04:57 35.85424 -112.30552 8944 ft 189 kts 294°
2026-05-09 04:57 35.86079 -112.31946 8978 ft 188 kts 306°
2026-05-09 04:58 35.86761 -112.33337 8976 ft 191 kts 297°
2026-05-09 04:58 35.87175 -112.34905 8954 ft 194 kts 283°
2026-05-09 04:58 35.87462 -112.36527 8982 ft 193 kts 287°
2026-05-09 04:58 35.87875 -112.38099 9009 ft 192 kts 292°
2026-05-09 04:59 35.88357 -112.39634 9026 ft 192 kts 293°
2026-05-09 04:59 35.88835 -112.41160 9109 ft 188 kts 293°
2026-05-09 04:59 35.89296 -112.42642 9132 ft 189 kts 295°
2026-05-09 04:59 35.89707 -112.44195 9071 ft 193 kts 281°
2026-05-09 05:00 35.89572 -112.45829 9065 ft 195 kts 255°
2026-05-09 05:00 35.89105 -112.47413 9069 ft 196 kts 252°
2026-05-09 05:00 35.88627 -112.48953 9258 ft 187 kts 252°
2026-05-09 05:00 35.88098 -112.50393 9407 ft 183 kts 244°
2026-05-09 05:01 35.87452 -112.51718 9594 ft 178 kts 244°
2026-05-09 05:01 35.86854 -112.53053 9721 ft 176 kts 245°
2026-05-09 05:01 35.86272 -112.54377 9836 ft 175 kts 248°
2026-05-09 05:01 35.85820 -112.55715 10045 ft 165 kts 255°
2026-05-09 05:02 35.85506 -112.57053 10202 ft 160 kts 261°
2026-05-09 05:02 35.85257 -112.58359 10394 ft 152 kts 259°
2026-05-09 05:02 35.84989 -112.59572 10634 ft 145 kts 258°
2026-05-09 05:02 35.84703 -112.60792 10716 ft 147 kts 261°
2026-05-09 05:03 35.84534 -112.62000 10910 ft 141 kts 267°
2026-05-09 05:03 35.84421 -112.63185 11052 ft 138 kts 267°
2026-05-09 05:03 35.84312 -112.64331 11178 ft 136 kts 269°
2026-05-09 05:03 35.84234 -112.65488 11301 ft 133 kts 261°
2026-05-09 05:04 35.83947 -112.66542 11502 ft 126 kts 256°
2026-05-09 05:04 35.83673 -112.67579 11571 ft 127 kts 259°
2026-05-09 05:04 35.83469 -112.68587 11758 ft 118 kts 263°
2026-05-09 05:04 35.83295 -112.69553 11799 ft 123 kts 265°
2026-05-09 05:05 35.83160 -112.70667 11796 ft 128 kts 266°
2026-05-09 05:05 35.82956 -112.71768 11756 ft 139 kts 251°
2026-05-09 05:05 35.82495 -112.72828 11875 ft 138 kts 246°
2026-05-09 05:05 35.82038 -112.73886 11899 ft 143 kts 247°
2026-05-09 05:06 35.81615 -112.74995 11991 ft 141 kts 248°
2026-05-09 05:06 35.81175 -112.76068 12018 ft 146 kts 247°
2026-05-09 05:06 35.80675 -112.77217 11945 ft 156 kts 242°
2026-05-09 05:06 35.80132 -112.78409 11868 ft 166 kts 244°
2026-05-09 05:07 35.79560 -112.79673 11827 ft 171 kts 248°
2026-05-09 05:07 35.79112 -112.81055 11722 ft 179 kts 257°
2026-05-09 05:07 35.78818 -112.82541 11732 ft 177 kts 263°
2026-05-09 05:07 35.78610 -112.84040 11738 ft 177 kts 263°
2026-05-09 05:08 35.78616 -112.85573 11593 ft 184 kts 291°
2026-05-09 05:08 35.79220 -112.86938 11487 ft 185 kts 300°
2026-05-09 05:08 35.79560 -112.88462 11374 ft 189 kts 272°
2026-05-09 05:08 35.79240 -112.90041 11306 ft 193 kts 251°
2026-05-09 05:09 35.78708 -112.91576 11253 ft 194 kts 250°
2026-05-09 05:09 35.78189 -112.92990 11599 ft 173 kts 249°
2026-05-09 05:09 35.77672 -112.94352 11621 ft 172 kts 248°
2026-05-09 05:09 35.77189 -112.95674 11708 ft 171 kts 250°
2026-05-09 05:10 35.76649 -112.96993 11705 ft 173 kts 244°
2026-05-09 05:10 35.76049 -112.98280 11712 ft 176 kts 246°
2026-05-09 05:10 35.75683 -112.99739 11584 ft 182 kts 265°
2026-05-09 05:10 35.75575 -113.01249 11667 ft 176 kts 274°
2026-05-09 05:11 35.75394 -113.02718 11681 ft 174 kts 252°
2026-05-09 05:11 35.75021 -113.04150 11638 ft 179 kts 264°
2026-05-09 05:11 35.74844 -113.05688 11542 ft 184 kts 262°
2026-05-09 05:11 35.74478 -113.07207 11532 ft 184 kts 254°
2026-05-09 05:12 35.74062 -113.08677 11598 ft 180 kts 253°
2026-05-09 05:12 35.73609 -113.10098 11663 ft 177 kts 251°
2026-05-09 05:12 35.73118 -113.11475 11707 ft 175 kts 249°
2026-05-09 05:12 35.72606 -113.12844 11681 ft 180 kts 253°
2026-05-09 05:13 35.72276 -113.14327 11630 ft 179 kts 260°
2026-05-09 05:13 35.71963 -113.15803 11681 ft 177 kts 256°
2026-05-09 05:13 35.71522 -113.17191 11816 ft 171 kts 254°
2026-05-09 05:13 35.71235 -113.18594 11872 ft 168 kts 262°
2026-05-09 05:14 35.70972 -113.19987 11907 ft 167 kts 259°
2026-05-09 05:14 35.70653 -113.21368 11942 ft 167 kts 257°
2026-05-09 05:14 35.70310 -113.22750 11900 ft 172 kts 257°
2026-05-09 05:14 35.69968 -113.24178 11861 ft 176 kts 258°
2026-05-09 05:15 35.69611 -113.25642 11778 ft 181 kts 257°
2026-05-09 05:15 35.69272 -113.27148 11725 ft 183 kts 258°
2026-05-09 05:15 35.68936 -113.28682 11650 ft 187 kts 259°
2026-05-09 05:15 35.68574 -113.30176 11726 ft 180 kts 253°
2026-05-09 05:16 35.68098 -113.31615 11685 ft 184 kts 252°
2026-05-09 05:16 35.67663 -113.33077 11745 ft 179 kts 256°
2026-05-09 05:16 35.67302 -113.34521 11813 ft 175 kts 258°
2026-05-09 05:16 35.66976 -113.35949 11878 ft 172 kts 259°
2026-05-09 05:17 35.66649 -113.37380 11739 ft 182 kts 258°
2026-05-09 05:17 35.66309 -113.38890 11663 ft 186 kts 260°
2026-05-09 05:17 35.66023 -113.40458 11584 ft 187 kts 260°
2026-05-09 05:17 35.65609 -113.41938 11695 ft 180 kts 253°
2026-05-09 05:18 35.65180 -113.43371 11761 ft 176 kts 255°
2026-05-09 05:18 35.64807 -113.44789 11825 ft 173 kts 257°
2026-05-09 05:18 35.64462 -113.46198 11864 ft 170 kts 258°
2026-05-09 05:18 35.64130 -113.47610 11853 ft 174 kts 259°
2026-05-09 05:19 35.63799 -113.49050 11826 ft 176 kts 258°
2026-05-09 05:19 35.63430 -113.50492 11827 ft 177 kts 256°
2026-05-09 05:19 35.63071 -113.51946 11828 ft 177 kts 258°
2026-05-09 05:19 35.62648 -113.53351 11810 ft 179 kts 245°
2026-05-09 05:20 35.61969 -113.54636 11830 ft 180 kts 240°
2026-05-09 05:20 35.61242 -113.55893 11825 ft 181 kts 237°
2026-05-09 05:20 35.60473 -113.57126 11819 ft 182 kts 236°
2026-05-09 05:20 35.59672 -113.58334 11824 ft 182 kts 233°
2026-05-09 05:21 35.58836 -113.59513 11824 ft 183 kts 232°
2026-05-09 05:21 35.57972 -113.60669 11817 ft 184 kts 230°
2026-05-09 05:21 35.57087 -113.61809 11822 ft 184 kts 230°
2026-05-09 05:21 35.56201 -113.62945 11847 ft 183 kts 230°
2026-05-09 05:22 35.55321 -113.64068 11861 ft 182 kts 230°
2026-05-09 05:22 35.54464 -113.65170 11901 ft 180 kts 230°
2026-05-09 05:22 35.53603 -113.66280 11944 ft 179 kts 230°
2026-05-09 05:22 35.52747 -113.67390 11980 ft 179 kts 230°
2026-05-09 05:23 35.51892 -113.68502 12009 ft 179 kts 230°
2026-05-09 05:23 35.51041 -113.69615 12025 ft 179 kts 231°
2026-05-09 05:23 35.50195 -113.70730 12031 ft 179 kts 231°
2026-05-09 05:23 35.49341 -113.71863 12025 ft 181 kts 231°
2026-05-09 05:24 35.48484 -113.73004 12034 ft 182 kts 231°
2026-05-09 05:24 35.47624 -113.74147 12038 ft 182 kts 231°
2026-05-09 05:24 35.46772 -113.75277 12041 ft 183 kts 231°
2026-05-09 05:24 35.45906 -113.76424 12055 ft 182 kts 231°
2026-05-09 05:25 35.45043 -113.77565 12065 ft 182 kts 230°
2026-05-09 05:25 35.44180 -113.78705 12073 ft 182 kts 230°
2026-05-09 05:25 35.42452 -113.80984 12092 ft 182 kts 230°
2026-05-09 05:26 35.41590 -113.82125 12099 ft 183 kts 230°
2026-05-09 05:26 35.40724 -113.83269 12105 ft 183 kts 230°
2026-05-09 05:26 35.39860 -113.84409 12118 ft 182 kts 230°
2026-05-09 05:26 35.38994 -113.85552 12125 ft 183 kts 230°
2026-05-09 05:27 35.38140 -113.86678 12132 ft 183 kts 230°
2026-05-09 05:27 35.37273 -113.87818 12144 ft 182 kts 230°
2026-05-09 05:27 35.36408 -113.88955 12152 ft 182 kts 230°
2026-05-09 05:27 35.35544 -113.90092 12160 ft 182 kts 230°
2026-05-09 05:28 35.34680 -113.91229 12167 ft 182 kts 230°
2026-05-09 05:28 35.33815 -113.92365 12168 ft 182 kts 230°
2026-05-09 05:28 35.32952 -113.93500 12169 ft 182 kts 230°
2026-05-09 05:28 35.32089 -113.94635 12164 ft 182 kts 230°
2026-05-09 05:29 35.31237 -113.95750 12169 ft 181 kts 230°
2026-05-09 05:29 35.30374 -113.96882 12167 ft 181 kts 230°
2026-05-09 05:29 35.29513 -113.98011 12169 ft 181 kts 230°
2026-05-09 05:29 35.28656 -113.99140 12165 ft 181 kts 230°
2026-05-09 05:30 35.27800 -114.00272 12163 ft 181 kts 230°
2026-05-09 05:30 35.26943 -114.01402 12170 ft 181 kts 230°
2026-05-09 05:30 35.26085 -114.02527 12164 ft 181 kts 230°
2026-05-09 05:30 35.25226 -114.03652 12167 ft 180 kts 230°
2026-05-09 05:31 35.24382 -114.04760 12171 ft 180 kts 230°
2026-05-09 05:31 35.23533 -114.05876 12169 ft 179 kts 230°
2026-05-09 05:31 35.22679 -114.06993 12158 ft 179 kts 230°
2026-05-09 05:31 35.21825 -114.08107 12147 ft 179 kts 230°
2026-05-09 05:32 35.20974 -114.09219 12134 ft 179 kts 230°
2026-05-09 05:32 35.20122 -114.10334 12128 ft 179 kts 230°
2026-05-09 05:32 35.19266 -114.11451 12119 ft 180 kts 230°
2026-05-09 05:32 35.18413 -114.12565 12107 ft 181 kts 230°
2026-05-09 05:33 35.17559 -114.13682 12095 ft 180 kts 230°
2026-05-09 05:33 35.16709 -114.14800 12090 ft 179 kts 230°
2026-05-09 05:33 35.15861 -114.15914 12082 ft 179 kts 230°
2026-05-09 05:33 35.15012 -114.17026 12071 ft 179 kts 230°
2026-05-09 05:34 35.14161 -114.18137 12062 ft 179 kts 230°
2026-05-09 05:34 35.13312 -114.19245 12053 ft 179 kts 230°
2026-05-09 05:34 35.12460 -114.20356 12038 ft 179 kts 230°
2026-05-09 05:34 35.11616 -114.21452 12023 ft 179 kts 230°
2026-05-09 05:35 35.10761 -114.22565 11954 ft 179 kts 229°
2026-05-09 05:35 35.09908 -114.23676 11948 ft 179 kts 230°
2026-05-09 05:35 35.09055 -114.24787 11949 ft 179 kts 230°
2026-05-09 05:35 35.08200 -114.25899 11951 ft 179 kts 230°
2026-05-09 05:36 35.07347 -114.27011 11950 ft 179 kts 230°
2026-05-09 05:36 35.06495 -114.28126 11943 ft 179 kts 230°
2026-05-09 05:36 35.05642 -114.29241 11939 ft 180 kts 229°
2026-05-09 05:36 35.04799 -114.30342 11938 ft 180 kts 229°
2026-05-09 05:37 35.03946 -114.31452 11939 ft 179 kts 229°
2026-05-09 05:37 35.03090 -114.32563 11943 ft 179 kts 229°
2026-05-09 05:37 35.02234 -114.33676 11941 ft 180 kts 229°
2026-05-09 05:37 35.01373 -114.34789 11937 ft 180 kts 229°
2026-05-09 05:38 35.00513 -114.35905 11939 ft 180 kts 229°
2026-05-09 05:38 34.99653 -114.37023 11937 ft 181 kts 229°
2026-05-09 05:38 34.98804 -114.38128 11935 ft 180 kts 229°
2026-05-09 05:38 34.97948 -114.39242 11934 ft 180 kts 229°
2026-05-09 05:39 34.97093 -114.40356 11934 ft 179 kts 229°
2026-05-09 05:39 34.96238 -114.41464 11936 ft 179 kts 229°
2026-05-09 05:39 34.95671 -114.42198 11933 ft 180 kts 229°
2026-05-09 05:39 34.94811 -114.43310 11933 ft 180 kts 229°
2026-05-09 05:40 34.93674 -114.44780 11951 ft 180 kts 229°
2026-05-09 05:40 34.92817 -114.45887 11955 ft 179 kts 229°
2026-05-09 05:40 34.91960 -114.46995 11962 ft 179 kts 229°
2026-05-09 05:40 34.91383 -114.47742 11968 ft 179 kts 229°
2026-05-09 05:41 34.90527 -114.48851 11970 ft 179 kts 229°
2026-05-09 05:41 34.89671 -114.49960 11975 ft 180 kts 229°
2026-05-09 05:41 34.88824 -114.51053 11980 ft 180 kts 229°
2026-05-09 05:41 34.87961 -114.52167 11984 ft 180 kts 229°
2026-05-09 05:42 34.87101 -114.53280 11987 ft 180 kts 229°
2026-05-09 05:42 34.86244 -114.54390 11998 ft 180 kts 228°
2026-05-09 05:42 34.85385 -114.55497 12001 ft 180 kts 229°
2026-05-09 05:42 34.84525 -114.56610 12007 ft 180 kts 228°
2026-05-09 05:43 34.83666 -114.57721 12009 ft 180 kts 228°
2026-05-09 05:43 34.82802 -114.58835 12006 ft 181 kts 228°
2026-05-09 05:43 34.81947 -114.59935 12001 ft 181 kts 228°
2026-05-09 05:43 34.81080 -114.61052 12007 ft 181 kts 228°
2026-05-09 05:44 34.80215 -114.62165 12002 ft 181 kts 228°
2026-05-09 05:44 34.79350 -114.63281 12004 ft 181 kts 228°
2026-05-09 05:44 34.78486 -114.64394 12007 ft 181 kts 228°
2026-05-09 05:44 34.77619 -114.65513 12005 ft 182 kts 228°
2026-05-09 05:45 34.76752 -114.66632 11998 ft 182 kts 228°
2026-05-09 05:45 34.75884 -114.67750 11998 ft 181 kts 227°
2026-05-09 05:45 34.75030 -114.68851 12003 ft 181 kts 227°
2026-05-09 05:45 34.74162 -114.69969 12001 ft 182 kts 228°
2026-05-09 05:46 34.73299 -114.71083 12001 ft 181 kts 227°
2026-05-09 05:46 34.72430 -114.72193 11994 ft 181 kts 227°
2026-05-09 05:46 34.71566 -114.73305 11995 ft 180 kts 227°
2026-05-09 05:46 34.70705 -114.74415 11988 ft 180 kts 227°
2026-05-09 05:47 34.69843 -114.75520 11984 ft 180 kts 227°
2026-05-09 05:47 34.68984 -114.76623 11979 ft 180 kts 227°
2026-05-09 05:47 34.68134 -114.77714 11974 ft 180 kts 227°
2026-05-09 05:47 34.67264 -114.78831 11970 ft 180 kts 227°
2026-05-09 05:48 34.66404 -114.79935 11968 ft 179 kts 227°
2026-05-09 05:48 34.65557 -114.81020 11965 ft 179 kts 226°
2026-05-09 05:48 34.64699 -114.82120 11959 ft 179 kts 227°
2026-05-09 05:48 34.63840 -114.83218 11954 ft 179 kts 226°
2026-05-09 05:49 34.62980 -114.84318 11951 ft 179 kts 227°
2026-05-09 05:49 34.62125 -114.85416 11946 ft 179 kts 227°
2026-05-09 05:49 34.61269 -114.86514 11943 ft 179 kts 226°
2026-05-09 05:49 34.60412 -114.87610 11940 ft 179 kts 226°
2026-05-09 05:50 34.59555 -114.88706 11935 ft 178 kts 227°
2026-05-09 05:50 34.58709 -114.89787 11936 ft 179 kts 226°
2026-05-09 05:50 34.57854 -114.90880 11932 ft 179 kts 226°
2026-05-09 05:50 34.56996 -114.91972 11931 ft 179 kts 226°
2026-05-09 05:51 34.56142 -114.93063 11924 ft 178 kts 225°
2026-05-09 05:51 34.55287 -114.94156 11920 ft 178 kts 226°
2026-05-09 05:51 34.54430 -114.95254 11914 ft 179 kts 225°
2026-05-09 05:51 34.53572 -114.96345 11912 ft 179 kts 225°
2026-05-09 05:52 34.52716 -114.97437 11913 ft 178 kts 226°
2026-05-09 05:52 34.51861 -114.98532 11916 ft 178 kts 225°
2026-05-09 05:52 34.51006 -114.99623 11914 ft 179 kts 225°
2026-05-09 05:52 34.50160 -115.00701 11916 ft 178 kts 225°
2026-05-09 05:53 34.49303 -115.01792 11916 ft 178 kts 225°
2026-05-09 05:53 34.48457 -115.02880 11926 ft 177 kts 226°
2026-05-09 05:53 34.47614 -115.03965 11917 ft 177 kts 225°
2026-05-09 05:53 34.46763 -115.05042 11924 ft 176 kts 225°
2026-05-09 05:54 34.45926 -115.06103 11915 ft 177 kts 224°
2026-05-09 05:54 34.45077 -115.07178 11920 ft 176 kts 224°
2026-05-09 05:54 34.44227 -115.08256 11919 ft 177 kts 224°
2026-05-09 05:54 34.43377 -115.09337 11915 ft 177 kts 225°
2026-05-09 05:55 34.42527 -115.10424 11910 ft 177 kts 225°
2026-05-09 05:55 34.41676 -115.11512 11915 ft 178 kts 224°
2026-05-09 05:55 34.40826 -115.12598 11919 ft 178 kts 225°
2026-05-09 05:55 34.39983 -115.13672 11908 ft 178 kts 223°
2026-05-09 05:56 34.39131 -115.14759 11911 ft 178 kts 224°
2026-05-09 05:56 34.38276 -115.15846 11909 ft 178 kts 224°
2026-05-09 05:56 34.37422 -115.16931 11914 ft 178 kts 223°
2026-05-09 05:56 34.36571 -115.18013 11914 ft 177 kts 224°
2026-05-09 05:57 34.35718 -115.19096 11912 ft 177 kts 225°
2026-05-09 05:57 34.34881 -115.20160 11914 ft 177 kts 224°
2026-05-09 05:57 34.34030 -115.21238 11912 ft 177 kts 224°
2026-05-09 05:57 34.33177 -115.22319 11911 ft 177 kts 224°
2026-05-09 05:58 34.32324 -115.23396 11913 ft 177 kts 224°
2026-05-09 05:58 34.31469 -115.24476 11913 ft 177 kts 224°
2026-05-09 05:58 34.30616 -115.25556 11914 ft 177 kts 224°
2026-05-09 05:58 34.29775 -115.26622 11910 ft 177 kts 224°
2026-05-09 05:59 34.28922 -115.27701 11913 ft 177 kts 224°
2026-05-09 05:59 34.28073 -115.28776 11911 ft 177 kts 224°
2026-05-09 05:59 34.27218 -115.29857 11910 ft 177 kts 224°
2026-05-09 05:59 34.26365 -115.30934 11914 ft 177 kts 224°
2026-05-09 06:00 34.25512 -115.32012 11926 ft 177 kts 224°
2026-05-09 06:00 34.24660 -115.33089 11918 ft 177 kts 224°
2026-05-09 06:00 34.23807 -115.34165 11916 ft 178 kts 224°
2026-05-09 06:00 34.22953 -115.35243 11918 ft 177 kts 224°
2026-05-09 06:01 34.22111 -115.36305 11915 ft 178 kts 224°
2026-05-09 06:01 34.21246 -115.37397 11920 ft 178 kts 224°
2026-05-09 06:01 34.20392 -115.38474 11918 ft 178 kts 224°
2026-05-09 06:01 34.19536 -115.39553 11927 ft 178 kts 224°
2026-05-09 06:02 34.18683 -115.40632 11926 ft 178 kts 224°
2026-05-09 06:02 34.17840 -115.41697 11924 ft 178 kts 224°
2026-05-09 06:02 34.16979 -115.42782 11919 ft 179 kts 224°
2026-05-09 06:02 34.16120 -115.43865 11925 ft 178 kts 224°
2026-05-09 06:03 34.15260 -115.44947 11926 ft 179 kts 224°
2026-05-09 06:03 34.14397 -115.46030 11923 ft 179 kts 224°
2026-05-09 06:03 34.13535 -115.47113 11924 ft 179 kts 225°
2026-05-09 06:03 34.12674 -115.48198 11933 ft 179 kts 224°
2026-05-09 06:04 34.11811 -115.49278 11940 ft 178 kts 224°
2026-05-09 06:04 34.10950 -115.50357 11944 ft 178 kts 224°
2026-05-09 06:04 34.10090 -115.51438 11941 ft 178 kts 223°
2026-05-09 06:04 34.09242 -115.52496 11937 ft 178 kts 224°
2026-05-09 06:05 34.08381 -115.53571 11940 ft 178 kts 224°
2026-05-09 06:05 34.07526 -115.54644 11947 ft 177 kts 224°
2026-05-09 06:05 34.06672 -115.55722 11944 ft 178 kts 227°
2026-05-09 06:05 34.06196 -115.57067 11937 ft 177 kts 264°
2026-05-09 06:06 34.06383 -115.58518 11964 ft 176 kts 285°
2026-05-09 06:06 34.06645 -115.59971 11943 ft 178 kts 275°
2026-05-09 06:06 34.06567 -115.61456 11943 ft 178 kts 255°
2026-05-09 06:06 34.06078 -115.62819 11950 ft 177 kts 234°
2026-05-09 06:07 34.05299 -115.63954 11966 ft 175 kts 226°
2026-05-09 06:07 34.04475 -115.65032 11958 ft 175 kts 225°
2026-05-09 06:07 34.03652 -115.66095 11953 ft 176 kts 225°
2026-05-09 06:07 34.02815 -115.67177 11951 ft 176 kts 225°
2026-05-09 06:08 34.01977 -115.68253 11952 ft 176 kts 225°
2026-05-09 06:08 34.01138 -115.69327 11962 ft 176 kts 225°
2026-05-09 06:08 34.00299 -115.70401 11957 ft 176 kts 225°
2026-05-09 06:08 33.99461 -115.71471 11963 ft 175 kts 225°
2026-05-09 06:09 33.98624 -115.72540 11967 ft 175 kts 225°
2026-05-09 06:09 33.97787 -115.73608 11965 ft 175 kts 225°
2026-05-09 06:09 33.96948 -115.74677 11970 ft 175 kts 225°
2026-05-09 06:09 33.96110 -115.75746 11970 ft 175 kts 225°
2026-05-09 06:10 33.95271 -115.76816 11972 ft 175 kts 225°
2026-05-09 06:10 33.94429 -115.77885 11972 ft 176 kts 225°
2026-05-09 06:10 33.93600 -115.78938 11977 ft 176 kts 225°
2026-05-09 06:10 33.92748 -115.80022 11978 ft 176 kts 225°
2026-05-09 06:11 33.91919 -115.81078 11979 ft 176 kts 225°
2026-05-09 06:11 33.91075 -115.82148 11975 ft 176 kts 225°
2026-05-09 06:11 33.90231 -115.83217 11977 ft 176 kts 225°
2026-05-09 06:11 33.89387 -115.84290 11982 ft 176 kts 224°
2026-05-09 06:12 33.88543 -115.85361 11973 ft 176 kts 225°
2026-05-09 06:12 33.87701 -115.86434 11982 ft 176 kts 225°
2026-05-09 06:12 33.86858 -115.87502 11983 ft 176 kts 225°
2026-05-09 06:12 33.86014 -115.88574 11989 ft 176 kts 225°
2026-05-09 06:13 33.85168 -115.89644 11984 ft 177 kts 225°
2026-05-09 06:13 33.84329 -115.90698 11984 ft 176 kts 225°
2026-05-09 06:13 33.83485 -115.91766 11986 ft 176 kts 225°
2026-05-09 06:13 33.82638 -115.92838 11984 ft 177 kts 225°
2026-05-09 06:14 33.81789 -115.93908 11985 ft 176 kts 225°
2026-05-09 06:14 33.80942 -115.94974 11988 ft 176 kts 225°
2026-05-09 06:14 33.80092 -115.96043 11989 ft 177 kts 225°
2026-05-09 06:14 33.79242 -115.97113 11987 ft 177 kts 225°
2026-05-09 06:15 33.78405 -115.98166 11989 ft 177 kts 225°
2026-05-09 06:15 33.77552 -115.99235 11990 ft 177 kts 225°
2026-05-09 06:15 33.76700 -116.00305 11987 ft 177 kts 225°
2026-05-09 06:15 33.75848 -116.01378 11985 ft 178 kts 225°
2026-05-09 06:16 33.74992 -116.02450 11977 ft 178 kts 225°
2026-05-09 06:16 33.74137 -116.03522 11981 ft 177 kts 225°
2026-05-09 06:16 33.73285 -116.04594 11986 ft 177 kts 226°
2026-05-09 06:16 33.72434 -116.05665 11992 ft 177 kts 226°
2026-05-09 06:17 33.71584 -116.06736 11990 ft 177 kts 225°
2026-05-09 06:17 33.70734 -116.07805 11994 ft 177 kts 225°
2026-05-09 06:17 33.69881 -116.08878 11992 ft 177 kts 226°
2026-05-09 06:17 33.69032 -116.09945 11991 ft 177 kts 225°
2026-05-09 06:18 33.68194 -116.11001 11997 ft 177 kts 226°
2026-05-09 06:18 33.67343 -116.12072 11995 ft 177 kts 225°
2026-05-09 06:18 33.66495 -116.13142 11996 ft 177 kts 226°
2026-05-09 06:18 33.65644 -116.14212 11997 ft 177 kts 226°
2026-05-09 06:19 33.64792 -116.15284 11993 ft 177 kts 226°
2026-05-09 06:19 33.63937 -116.16356 11986 ft 178 kts 226°
2026-05-09 06:19 33.63083 -116.17431 11986 ft 178 kts 226°
2026-05-09 06:19 33.62226 -116.18506 11979 ft 178 kts 226°
2026-05-09 06:20 33.61371 -116.19579 11982 ft 178 kts 226°
2026-05-09 06:20 33.60514 -116.20653 11979 ft 178 kts 226°
2026-05-09 06:20 33.59657 -116.21726 11983 ft 178 kts 226°
2026-05-09 06:20 33.58800 -116.22798 11982 ft 178 kts 226°
2026-05-09 06:21 33.57946 -116.23867 11980 ft 177 kts 226°
2026-05-09 06:21 33.57090 -116.24940 11983 ft 178 kts 226°
2026-05-09 06:21 33.56236 -116.26011 11983 ft 177 kts 226°
2026-05-09 06:21 33.55385 -116.27075 11990 ft 177 kts 226°
2026-05-09 06:22 33.54534 -116.28142 11993 ft 177 kts 226°
2026-05-09 06:22 33.53682 -116.29210 11993 ft 178 kts 226°
2026-05-09 06:22 33.52828 -116.30280 11999 ft 178 kts 226°
2026-05-09 06:22 33.51984 -116.31336 12000 ft 178 kts 226°
2026-05-09 06:23 33.51183 -116.32464 12000 ft 178 kts 230°
2026-05-09 06:23 33.50260 -116.33430 11989 ft 178 kts 205°
2026-05-09 06:23 33.49117 -116.33977 12008 ft 176 kts 201°
2026-05-09 06:23 33.48024 -116.34649 12002 ft 177 kts 217°
2026-05-09 06:24 33.47136 -116.35660 12027 ft 175 kts 227°
2026-05-09 06:24 33.46315 -116.36718 12030 ft 176 kts 226°
2026-05-09 06:24 33.45423 -116.37718 12031 ft 176 kts 219°
2026-05-09 06:24 33.44426 -116.38577 12035 ft 177 kts 212°
2026-05-09 06:25 33.43357 -116.39304 12038 ft 177 kts 207°
2026-05-09 06:25 33.42254 -116.39957 12041 ft 177 kts 205°
2026-05-09 06:25 33.41133 -116.40556 12049 ft 177 kts 204°
2026-05-09 06:25 33.40008 -116.41161 12047 ft 177 kts 204°
2026-05-09 06:26 33.38889 -116.41789 12054 ft 177 kts 205°
2026-05-09 06:26 33.37784 -116.42437 12072 ft 177 kts 206°
2026-05-09 06:26 33.36689 -116.43108 12077 ft 177 kts 207°
2026-05-09 06:26 33.35603 -116.43804 12083 ft 177 kts 208°
2026-05-09 06:27 33.34527 -116.44521 12093 ft 177 kts 209°
2026-05-09 06:27 33.33474 -116.45246 12091 ft 177 kts 210°
2026-05-09 06:27 33.32410 -116.45992 12097 ft 177 kts 210°
2026-05-09 06:27 33.31350 -116.46741 12098 ft 177 kts 211°
2026-05-09 06:28 33.30288 -116.47492 12105 ft 177 kts 210°
2026-05-09 06:28 33.29226 -116.48239 12111 ft 177 kts 210°
2026-05-09 06:28 33.28161 -116.48980 12112 ft 177 kts 210°
2026-05-09 06:28 33.27092 -116.49718 12111 ft 178 kts 210°
2026-05-09 06:29 33.26018 -116.50453 12115 ft 177 kts 210°
2026-05-09 06:29 33.24945 -116.51182 12120 ft 177 kts 209°
2026-05-09 06:29 33.23871 -116.51911 12120 ft 177 kts 210°
2026-05-09 06:29 33.22801 -116.52638 12128 ft 177 kts 210°
2026-05-09 06:30 33.22092 -116.53118 12133 ft 177 kts 210°
2026-05-09 06:30 33.21024 -116.53844 12134 ft 176 kts 210°
2026-05-09 06:30 33.19953 -116.54574 12141 ft 180 kts 210°
2026-05-09 06:30 33.18481 -116.55574 12154 ft 187 kts 210°
2026-05-09 06:31 33.17711 -116.56096 12151 ft 190 kts 210°
2026-05-09 06:31 33.16555 -116.56883 12156 ft 192 kts 210°
2026-05-09 06:31 33.15386 -116.57682 12168 ft 194 kts 210°
2026-05-09 06:31 33.14221 -116.58480 12170 ft 197 kts 211°
2026-05-09 06:32 33.12999 -116.59273 12180 ft 198 kts 204°
2026-05-09 06:32 33.11703 -116.59746 12173 ft 198 kts 191°
2026-05-09 06:32 33.10332 -116.59967 12183 ft 199 kts 184°
2026-05-09 06:33 33.07565 -116.60168 12181 ft 200 kts 190°
2026-05-09 06:33 33.06222 -116.60617 12150 ft 202 kts 193°
2026-05-09 06:33 33.04828 -116.60925 12068 ft 206 kts 188°
2026-05-09 06:34 33.01952 -116.61377 11622 ft 210 kts 186°
2026-05-09 06:34 33.00502 -116.61561 11409 ft 208 kts 185°
2026-05-09 06:34 32.99063 -116.61645 11205 ft 207 kts 181°
2026-05-09 06:34 32.97620 -116.61661 10962 ft 208 kts 180°
2026-05-09 06:35 32.96174 -116.61665 10761 ft 207 kts 179°
2026-05-09 06:35 32.94735 -116.61649 10581 ft 206 kts 180°
2026-05-09 06:35 32.93301 -116.61693 10374 ft 207 kts 181°
2026-05-09 06:35 32.91879 -116.61745 10170 ft 207 kts 181°
2026-05-09 06:36 32.90429 -116.61761 10027 ft 204 kts 178°
2026-05-09 06:36 32.89004 -116.61759 9822 ft 206 kts 181°
2026-05-09 06:36 32.87579 -116.61809 9590 ft 208 kts 182°
2026-05-09 06:36 32.86125 -116.61882 9353 ft 209 kts 182°
2026-05-09 06:37 32.84677 -116.61949 9101 ft 212 kts 182°
2026-05-09 06:37 32.83198 -116.61979 8935 ft 209 kts 181°
2026-05-09 06:37 32.81750 -116.62014 8787 ft 207 kts 181°
2026-05-09 06:37 32.80356 -116.61993 8800 ft 198 kts 183°
2026-05-09 06:38 32.79058 -116.62460 8678 ft 197 kts 213°
2026-05-09 06:38 32.78095 -116.63572 8586 ft 193 kts 239°
2026-05-09 06:38 32.77519 -116.64984 8349 ft 198 kts 246°
2026-05-09 06:38 32.76954 -116.66511 8036 ft 205 kts 249°
2026-05-09 06:39 32.76395 -116.68085 7710 ft 209 kts 248°
2026-05-09 06:39 32.75852 -116.69713 7343 ft 213 kts 251°
2026-05-09 06:39 32.75383 -116.71396 6954 ft 217 kts 253°
2026-05-09 06:39 32.74906 -116.73109 6529 ft 220 kts 252°
2026-05-09 06:40 32.74449 -116.74838 6180 ft 218 kts 254°
2026-05-09 06:40 32.73939 -116.76548 5743 ft 221 kts 252°
2026-05-09 06:40 32.73375 -116.78270 5271 ft 225 kts 249°
2026-05-09 06:40 32.72769 -116.79978 4992 ft 220 kts 249°
2026-05-09 06:41 32.72179 -116.81578 4945 ft 212 kts 248°
2026-05-09 06:41 32.71485 -116.83101 4838 ft 210 kts 236°
2026-05-09 06:41 32.70492 -116.84381 4743 ft 211 kts 231°
2026-05-09 06:41 32.69760 -116.85865 4644 ft 210 kts 250°
2026-05-09 06:42 32.69266 -116.87443 4772 ft 197 kts 253°
2026-05-09 06:42 32.68837 -116.88970 4835 ft 193 kts 253°
2026-05-09 06:42 32.68386 -116.90506 4627 ft 204 kts 251°
2026-05-09 06:42 32.67866 -116.92125 4086 ft 214 kts 250°
2026-05-09 06:43 32.67337 -116.93750 3524 ft 210 kts 255°
2026-05-09 06:43 32.67220 -116.95465 2909 ft 210 kts 278°
2026-05-09 06:43 32.67670 -116.97101 2274 ft 211 kts 295°
2026-05-09 06:43 32.68296 -116.98654 1753 ft 203 kts 297°
2026-05-09 06:44 32.68887 -117.00039 1567 ft 174 kts 295°
2026-05-09 06:44 32.69335 -117.01247 1526 ft 144 kts 295°
2026-05-09 06:44 32.69609 -117.02322 1400 ft 135 kts 283°
2026-05-09 06:44 32.69791 -117.03415 1638 ft 134 kts 280°
2026-05-09 06:45 32.69959 -117.04549 1732 ft 144 kts 280°
2026-05-09 06:45 32.70136 -117.05762 1769 ft 153 kts 282°
2026-05-09 06:45 32.70378 -117.07001 1782 ft 151 kts 285°
2026-05-09 06:45 32.70641 -117.08152 1708 ft 132 kts 287°
2026-05-09 06:46 32.70908 -117.09160 1511 ft 124 kts 288°
2026-05-09 06:46 32.71169 -117.10097 1349 ft 119 kts 288°
2026-05-09 06:46 32.71401 -117.11009 1260 ft 110 kts 288°
2026-05-09 06:46 32.71631 -117.11879 1201 ft 115 kts 285°
2026-05-09 06:47 32.71837 -117.12779 1105 ft 114 kts 285°
2026-05-09 06:47 32.72049 -117.13615 981 ft 92 kts 287°
2026-05-09 06:47 32.72235 -117.14340 805 ft 91 kts 285°
2026-05-09 06:47 32.72425 -117.15086 651 ft 97 kts 287°
2026-05-09 06:48 32.72607 -117.15866 485 ft 99 kts 284°
2026-05-09 06:48 32.72795 -117.16641 364 ft 97 kts 284°
2026-05-09 06:48 32.72985 -117.17425 198 ft 100 kts 285°
2026-05-09 06:48 32.73173 -117.18210 41 ft 96 kts 284°
2026-05-09 06:49 32.73328 -117.18846 15 ft 60 kts 285°
2026-05-09 06:49 32.73405 -117.19088 15 ft 19 kts 334°
2026-05-09 06:49 32.73474 -117.19068 14 ft 6 kts 44°
2026-05-09 06:49 32.73481 -117.19005 13 ft 9 kts 105°
2026-05-09 06:50 32.73479 -117.18998 13 ft 0 kts 106°
2026-05-09 06:51 32.73454 -117.18894 14 ft 20 kts 107°
2026-05-09 06:51 32.73424 -117.18772 13 ft 16 kts 106°
2026-05-09 06:51 32.73391 -117.18637 15 ft 17 kts 105°
2026-05-09 06:52 32.73353 -117.18478 17 ft 21 kts 107°
2026-05-09 06:52 32.73308 -117.18293 15 ft 24 kts 107°
2026-05-09 06:52 32.73273 -117.18152 16 ft 20 kts 106°
2026-05-09 06:52 32.73243 -117.18011 15 ft 14 kts 85°
2026-05-09 06:53 32.73319 -117.17960 17 ft 15 kts 15°
2026-05-09 06:53 32.73365 -117.17945 16 ft 10 kts 17°
2026-05-09 06:53 32.73375 -117.17873 15 ft 1 kts 109°
2026-05-09 06:53 32.73342 -117.17863 16 ft 5 kts 127°
2026-05-09 06:54 32.73334 -117.17831 16 ft 0 kts 94°
2026-05-09 06:54 32.73339 -117.17824 16 ft 0 kts 15°